Regional Weather Roundup
Issued by NWS Portland, ME

Home | Current Version | Previous Version | Text Only | Print | Product List | Glossary On
Versions: 1 2 3 4 5 6 7 8 9 10 11 12 13 14 15 16 17 18 19 20 21 22 23 24 25 26 27 28 29 30 31 32 33 34 35 36 37 38 39 40 41 42 43 44 45 46 47 48 49 50
000
ASUS41 KGYX 050410
RWRGYX
WEATHER ROUNDUP FOR MAINE AND NEW HAMPSHIRE
NATIONAL WEATHER SERVICE GRAY ME
1200 AM EDT TUE MAY 05 2015

MEZ002-005-006-010-012-015-018-020-021-024-026-027-029-050500-
MAINE

CITY           SKY/WX    TMP DP  RH WIND       PRES   REMARKS
PORTLAND       CLOUDY    67  43  41 S6        29.99F
SANFORD        MOCLDY    70  39  32 SW9       30.02S
BAR HARBOR     CLOUDY    54  46  76 S12       29.98F
WISCASSET      CLOUDY    64  42  44 SW8       29.99F
ROCKLAND       CLOUDY    61  43  51 SW15G22   29.97F
FRYEBURG       MOCLDY    71  42  35 S6        29.97F
LEWISTONAUBURN CLOUDY    68  43  40 S12       29.97S
AUGUSTA        CLOUDY    60  44  55 SW9       29.96F
WATERVILLE     CLOUDY    59  45  58 S5        29.93F
BANGOR         CLOUDY    59  44  57 S6        29.94S
GREENVILLE       N/A     62  48  60 VRB3      29.94F
MILLINOCKET    CLOUDY    67  43  41 NW3       29.93R
HOULTON        PTCLDY    64  41  42 S7        29.88S
PRESQUE ISLE   CLOUDY    70  45  40 W22G41    29.86R
FRENCHVILLE    LGT RAIN  64  47  53 SW20G35   29.78F
CARIBOU        CLOUDY    69  45  41 SW22G35   29.83R
$$

NHZ002-005-008-009-011-012-014-050500-
NEW HAMPSHIRE

CITY           SKY/WX    TMP DP  RH WIND       PRES   REMARKS
PORTSMOUTH     MOCLDY    70  40  33 SW12G18   30.00F
ROCHESTER      PTCLDY    70  40  33 VRB7      30.01F
NASHUA         PTCLDY    70  40  33 VRB5      30.05F
MANCHESTER     MOCLDY    70  39  32 S9        30.03S
CONCORD        PTCLDY    71  40  32 SW13G23   30.02F
LACONIA        MOCLDY    70  39  32 SW12G17   29.98S
PLYMOUTH       MOCLDY    72  48  42 W8        30.01R
BERLIN         CLOUDY    65  48  54 SW8       30.02R
WHITEFIELD     CLOUDY    64  49  57 CALM      30.03R
JAFFREY        PTCLDY    65  41  41 S9        30.08F
KEENE          PTCLDY    66  41  39 S7        30.07R
LEBANON        CLOUDY    72  43  35 W6        30.02R
MT WASHINGTON  FOG       41  41 100 W32         N/A  VSB 1/16
$$

VTZ005-007-008-050500-
VERMONT

CITY           SKY/WX    TMP DP  RH WIND       PRES   REMARKS
ST JOHNSBURY     N/A     66  51  58 MISG      30.01S
MONTPELIER     CLOUDY    65  47  52 SW3       30.07F
BURLINGTON     LGT RAIN  64  52  64 W13       30.04R
$$

MAZ007-012-024-CTZ003-RIZ002-NYZ038-NYZ072-050500-
SOUTHERN NEW ENGLAND AND NY

CITY           SKY/WX    TMP DP  RH WIND       PRES   REMARKS
BOSTON         PTCLDY    65  41  41 SW12      30.08F
WORCESTER      CLEAR     65  40  39 SW15      30.11F
NANTUCKET      CLEAR     53  49  86 SW13      30.19S
PROVIDENCE     CLEAR     64  41  42 SW14G26   30.14F
HARTFORD       PTCLDY    67  43  41 S12       30.10S
ALBANY         CLOUDY    72  47  40 W13       30.09R
NEW YORK CITY  PTCLDY    73  41  31 SW15      30.15S
$$

ANZ081-ANZ082-ANZ150-NHZ014-MEZ023>029-050500-
COASTAL MARINE OBSERVATIONS

STATION/POSITION TIME  TEMP    WIND        PRES    WAVE
                       AIR SEA DIR/SP/G            HT/PER
                 (UTC) (F)     (DEG/KT/KT) (MB)    (FT/S)
$$

.............KEY..............
   WCI - WIND CHILL
   TC  - TEMPERATURE IN CELSIUS
   VSB - VISIBILITY IN MILES
   HX  - HEAT INDEX
   FAIR- INDICATES FEW OR NO CLOUDS BELOW 12,000 FT, WITH NO
         SIGNIFICANT WEATHER AND/OR OBSTRUCTIONS TO VISIBILITY.





USA.gov is the U.S. government's official web portal to all federal, state and local government web resources and services.